Location: *
(45.5667°S, 177.5167°W)
Time: 15:57:09
(UTC+00:00)

ATLAS 2AS CENTAUR R/B - Pass Details

Date: 29 May 2022
Orbit: 973 x 1238 km, 63.7° (Epoch: 28 June)

Event Time Altitude Azimuth Distance (km) Brightness Sun altitude
Rises 05:18:45 0° 221° (SW) 3,891 5.9 -10.5°
Reaches altitude 10° 05:21:23 10° 224° (SW) 2,968 5.4 -10.9°
Maximum altitude 05:28:17 57° 300° (WNW) 1,336 3.6 -12.0°
Drops below altitude 10° 05:35:35 10° 16° (NNE) 3,123 5.2 -13.3°
Sets 05:38:25 0° 20° (NNE) 4,108 5.7 -13.7°
